[[{"header":{"parameterUnit":"m.s-1","parameterCategory":2,"la1":30.2991,"la2":30.254,"lo1":-89.0895,"lo2":-89.0444,"dy":0.0017,"dx":0.0017,"nx":28,"ny":28,"refTime":"2025-06-02T21:00:00:Z","depth":"0","parameterNumber":2,"parameterNumberName":"U-component_of_CURRENTS"},"data":[0,0,0,0,0,0,0,0,0,0,0,0,0,0,0,0,0,0,0,0,0,0,0,0,0,0,0,0,0,0,0,0,0,0,0,0,0,0,0,0,0,0,0,0,0,0,0,0,0,0,0,0,0,0,0,0,0,0,-0.2122,-0.2122,0,-0.2127,-0.2127,-0.2127,-0.2116,-0.2116,-0.2115,-0.2115,-0.2029,-0.2027,-0.2025,0,0,0,0,0,0,0,0,0,0,0,0,0,-0.2067,-0.2068,-0.2122,-0.2122,-0.2123,-0.2127,-0.2127,-0.2127,-0.2116,-0.2116,-0.2115,-0.2115,-0.203,-0.2027,-0.2025,0,0,0,0,0,0,0,0,0,0,0,0,0,-0.2081,-0.2069,-0.2122,-0.212,-0.212,-0.2127,-0.2127,-0.2127,-0.2116,-0.2116,-0.2115,-0.2115,-0.2031,-0.2028,-0.2024,-0.2006,0,0,-0.2014,-0.2013,0,0,0,0,0,0,0,0,-0.208,-0.2082,-0.212,-0.212,-0.212,-0.2123,-0.2076,-0.2083,-0.2116,-0.2114,-0.2115,-0.2115,-0.2054,-0.2049,-0.2047,-0.2002,-0.1998,-0.2014,-0.2012,-0.201,-0.2009,0,0,0,0,0,0,0,-0.2079,-0.2082,-0.2121,-0.212,-0.2121,-0.2107,-0.2109,-0.2078,-0.2081,-0.2114,-0.2114,-0.212,-0.2053,-0.2051,-0.2045,-0.1997,-0.2014,-0.2011,-0.2009,-0.2008,-0.1983,-0.1984,0,0,0,0,0,0,-0.2087,-0.2081,-0.2121,-0.2121,-0.2103,-0.2108,-0.211,-0.212,-0.2083,-0.2079,-0.212,-0.2119,-0.2056,-0.2049,-0.2042,-0.2049,-0.201,-0.2007,-0.2005,-0.1982,-0.1983,-0.1985,0,0,0,0,0,0,-0.2086,-0.2091,-0.2121,-0.2103,-0.2107,-0.211,-0.2121,-0.212,-0.2118,-0.2089,-0.2082,-0.2119,-0.2056,-0.2046,-0.2028,-0.2044,-0.2006,-0.2003,-0.198,-0.1982,-0.1984,-0.2044,0,0,0,0,0,0,-0.2084,-0.209,-0.2093,-0.2104,-0.2108,-0.2125,-0.2121,-0.2121,-0.2123,-0.2122,-0.2085,-0.2078,-0.2055,-0.2033,-0.2024,-0.2039,-0.2,-0.1979,-0.1981,-0.1984,-0.204,-0.2047,-0.2054,0,0,0,0,0,-0.2082,-0.2082,-0.2093,-0.2098,-0.2115,-0.2125,-0.2126,-0.2125,-0.2123,-0.2122,-0.2108,-0.2079,-0.2043,-0.2031,-0.202,-0.2035,-0.1977,-0.198,-0.1983,-0.2037,-0.2046,-0.2054,0,0,0,0,0,0,-0.2057,-0.2082,-0.2094,-0.2102,-0.2116,-0.2125,-0.2118,-0.2126,-0.2115,-0.2109,-0.2084,-0.2076,-0.2071,-0.2045,-0.2032,-0.2039,-0.201,-0.2011,-0.2054,-0.2062,-0.2069,-0.2087,-0.1997,0,0,0,0,0,-0.2057,-0.2062,-0.2089,-0.2094,-0.2101,-0.2112,-0.2114,-0.212,-0.2117,-0.2112,-0.2094,-0.2079,-0.2076,-0.2062,-0.2048,-0.2038,-0.2048,-0.2046,-0.2053,-0.2059,-0.2069,-0.2116,-0.2129,-0.1995,-0.1995,-0.1995,0,0,-0.2047,-0.2062,-0.2064,-0.2089,-0.2095,-0.2111,-0.2111,-0.2116,-0.2133,-0.2102,-0.2103,-0.2096,-0.2081,-0.2083,-0.2078,-0.206,-0.2103,-0.2063,-0.2068,-0.2074,-0.2121,-0.2134,-0.2146,-0.1997,-0.1997,-0.1996,0,0,-0.203,-0.2046,-0.2046,-0.2063,-0.2082,-0.2098,-0.2103,-0.2118,-0.2125,-0.213,-0.2128,-0.2146,-0.2108,-0.2129,-0.2129,-0.2166,-0.2141,-0.2146,-0.2187,-0.2233,-0.2245,-0.2255,-0.2287,-0.23,-0.2146,-0.2146,-0.2146,0,-0.2019,-0.2031,-0.2047,-0.2058,-0.2074,-0.2097,-0.2111,-0.2126,-0.2135,-0.2149,-0.2133,-0.2155,-0.2145,-0.2185,-0.2202,-0.2184,-0.219,-0.2154,-0.2243,-0.2254,-0.2263,-0.2294,-0.2307,-0.2149,-0.2149,-0.2148,-0.2148,0,-0.2007,-0.2022,-0.2021,-0.2052,-0.2072,-0.2082,-0.2121,-0.2137,-0.2151,-0.2174,-0.2209,-0.2217,-0.2233,-0.224,-0.2226,-0.2291,-0.2267,-0.225,-0.2223,-0.228,-0.2309,-0.2321,-0.2154,-0.2152,-0.2151,-0.2151,0,0,-0.1977,-0.2008,-0.2009,-0.2028,-0.2072,-0.2088,-0.2125,-0.2172,-0.2202,-0.2224,-0.2268,-0.23,-0.2312,-0.2316,-0.2318,-0.2361,-0.2442,-0.2328,-0.2329,-0.2361,-0.2527,-0.243,-0.2434,-0.2427,-0.243,-0.2432,-0.2521,0,-0.1966,-0.198,-0.2007,-0.2037,-0.2053,-0.2099,-0.2135,-0.2182,-0.2218,-0.2263,-0.2311,-0.2342,-0.2338,-0.2347,-0.2399,-0.2426,-0.2476,-0.2418,-0.2466,-0.2467,-0.2375,-0.2446,-0.225,-0.2305,-0.2533,-0.2535,-0.2536,0,-0.1951,-0.1967,-0.1984,-0.204,-0.2053,-0.2078,-0.2149,-0.2185,-0.2262,-0.2288,-0.2346,-0.2372,-0.2452,-0.2432,-0.2538,-0.2491,-0.2519,-0.2544,-0.2547,-0.2444,-0.2393,-0.2284,-0.2319,-0.209,-0.2556,-0.2554,-0.2553,0,-0.1916,-0.1957,-0.1969,-0.1986,-0.2049,-0.2072,-0.2111,-0.2186,-0.2224,-0.2305,-0.2337,-0.2427,-0.2465,-0.2531,-0.2575,-0.2559,-0.2675,-0.2662,-0.2611,-0.2604,-0.2443,-0.2416,-0.2262,-0.2751,-0.2751,-0.2751,-0.275,0,-0.1898,-0.191,-0.1951,-0.1958,-0.1991,-0.2046,-0.2093,-0.2142,-0.2219,-0.227,-0.2342,-0.2389,-0.2488,-0.2554,-0.2599,-0.2635,-0.2699,-0.2638,-0.2629,-0.2456,-0.2431,-0.2226,-0.2169,-0.2754,-0.2753,-0.2753,-0.2752,0,-0.1855,-0.1879,-0.1898,-0.1951,-0.197,-0.1991,-0.2069,-0.2111,-0.2178,-0.2248,-0.2272,-0.2375,-0.2447,-0.2531,-0.2636,-0.2647,-0.2606,-0.2696,-0.2476,-0.2439,-0.2164,-0.2119,-0.2201,-0.2166,-0.2671,-0.2669,-0.2668,0,-0.1832,-0.1831,-0.1874,-0.1891,-0.1911,-0.1955,-0.1994,-0.2075,-0.2123,-0.2231,-0.2263,-0.2345,-0.2389,-0.2497,-0.2513,-0.2572,-0.2525,-0.2437,-0.2384,-0.2128,-0.2074,-0.2183,-0.2158,-0.2203,-0.2198,-0.2194,-0.219,0,-0.1787,-0.1793,-0.1807,-0.1839,-0.1873,-0.1917,-0.1974,-0.2002,-0.2102,-0.2153,-0.2214,-0.2251,-0.2314,-0.2267,-0.2317,-0.2331,-0.2267,-0.2351,-0.2145,-0.1747,-0.1802,-0.1766,-0.2162,-0.2152,-0.2156,-0.2159,-0.2161,-0.2162,-0.1745,-0.174,-0.1755,-0.1781,-0.1825,-0.1861,-0.187,-0.1943,-0.1989,-0.2048,-0.2122,-0.2125,-0.2055,-0.2075,-0.2003,-0.1742,-0.2021,-0.1678,-0.1668,-0.1823,-0.1712,-0.2018,-0.1953,-0.1956,-0.1958,-0.196,-0.1962,0,-0.1693,-0.1688,-0.1705,-0.1728,-0.1747,-0.1793,-0.1846,-0.1848,-0.187,-0.1925,-0.1958,-0.1855,-0.1676,-0.1537,-0.1281,-0.1082,-0.1134,-0.1,-0.1039,-0.1067,-0.133,-0.1213,-0.0909,-0.0909,-0.0909,-0.0909,-0.0909,-0.091,-0.1662,-0.1642,-0.1644,-0.1638,-0.1658,-0.1651,-0.1659,-0.1678,-0.1696,-0.1669,-0.1624,-0.1627,-0.1347,-0.0883,-0.0461,-0.0422,-0.0416,-0.0445,-0.0542,-0.0543,-0.0603,-0.066,-0.0529,-0.0087,-0.0086,-0.0255,-0.0255,-0.0254]},{"header":{"parameterUnit":"m.s-1","parameterCategory":2,"la1":30.2991,"la2":30.254,"lo1":-89.0895,"lo2":-89.0444,"dy":0.0017,"dx":0.0017,"nx":28,"ny":28,"refTime":"2025-06-02T21:00:00:Z","depth":"0","parameterNumber":3,"parameterNumberName":"V-component_of_CURRENTS"},"data":[0,0,0,0,0,0,0,0,0,0,0,0,0,0,0,0,0,0,0,0,0,0,0,0,0,0,0,0,0,0,0,0,0,0,0,0,0,0,0,0,0,0,0,0,0,0,0,0,0,0,0,0,0,0,0,0,0,0,-0.0704,-0.0703,0,-0.0615,-0.0614,-0.0613,-0.0577,-0.0577,-0.0578,-0.0578,-0.039,-0.0385,-0.038,0,0,0,0,0,0,0,0,0,0,0,0,0,-0.0706,-0.0707,-0.0704,-0.0703,-0.0702,-0.0616,-0.0614,-0.0613,-0.0577,-0.0577,-0.0578,-0.0578,-0.0392,-0.0386,-0.0379,0,0,0,0,0,0,0,0,0,0,0,0,0,-0.0669,-0.0708,-0.0704,-0.0675,-0.0672,-0.0616,-0.0614,-0.0612,-0.0577,-0.0577,-0.0578,-0.0579,-0.0394,-0.0386,-0.0378,-0.0317,0,0,-0.0354,-0.035,0,0,0,0,0,0,0,0,-0.0671,-0.0669,-0.068,-0.0677,-0.0673,-0.061,-0.0546,-0.0509,-0.0577,-0.0611,-0.0578,-0.0579,-0.0455,-0.0442,-0.0423,-0.0308,-0.03,-0.0353,-0.0348,-0.0345,-0.0342,0,0,0,0,0,0,0,-0.0674,-0.0671,-0.0667,-0.0679,-0.0675,-0.0621,-0.0617,-0.0539,-0.0527,-0.0608,-0.0605,-0.0599,-0.0452,-0.0431,-0.0418,-0.0297,-0.0353,-0.0346,-0.0341,-0.0338,-0.0145,-0.0145,0,0,0,0,0,0,-0.0696,-0.0675,-0.0669,-0.0664,-0.0676,-0.0621,-0.0617,-0.0628,-0.053,-0.0517,-0.0598,-0.0598,-0.0444,-0.0427,-0.0411,-0.0356,-0.0345,-0.0337,-0.0332,-0.0146,-0.0145,-0.0145,0,0,0,0,0,0,-0.0697,-0.0697,-0.0673,-0.0668,-0.0661,-0.0622,-0.0633,-0.0626,-0.0603,-0.0525,-0.0509,-0.0585,-0.0444,-0.0422,-0.0348,-0.0347,-0.0333,-0.0326,-0.0146,-0.0146,-0.0145,-0.023,0,0,0,0,0,0,-0.0697,-0.0698,-0.0704,-0.067,-0.0663,-0.0642,-0.0633,-0.0624,-0.06,-0.0597,-0.0507,-0.0491,-0.0443,-0.0361,-0.034,-0.0336,-0.032,-0.0146,-0.0146,-0.0145,-0.0228,-0.0233,-0.0237,0,0,0,0,0,-0.0698,-0.0699,-0.0706,-0.0704,-0.0676,-0.0642,-0.0632,-0.0603,-0.0599,-0.0586,-0.0532,-0.0494,-0.0343,-0.0354,-0.033,-0.0323,-0.0147,-0.0146,-0.0145,-0.0226,-0.0232,-0.0237,0,0,0,0,0,0,-0.0692,-0.0695,-0.0701,-0.0702,-0.0679,-0.0637,-0.0616,-0.0603,-0.055,-0.0544,-0.0478,-0.0457,-0.0395,-0.0342,-0.0355,-0.0267,-0.0242,-0.0237,-0.0311,-0.0316,-0.0321,-0.0334,-0.0313,0,0,0,0,0,-0.07,-0.071,-0.0696,-0.0694,-0.0685,-0.0653,-0.0633,-0.0618,-0.0572,-0.0551,-0.0494,-0.043,-0.0372,-0.0333,-0.0269,-0.0208,-0.0185,-0.0192,-0.0196,-0.0201,-0.0195,-0.0162,-0.0164,-0.0143,-0.0143,-0.0143,0,0,-0.0695,-0.0699,-0.0702,-0.0694,-0.0672,-0.0658,-0.0641,-0.0613,-0.06,-0.0534,-0.0487,-0.0435,-0.0358,-0.0305,-0.0272,-0.0261,-0.0201,-0.02,-0.0205,-0.0196,-0.0161,-0.0164,-0.0166,-0.0142,-0.0143,-0.0143,0,0,-0.0686,-0.0697,-0.07,-0.0687,-0.0666,-0.065,-0.0647,-0.061,-0.0593,-0.0544,-0.0503,-0.0457,-0.0355,-0.0317,-0.028,-0.0265,-0.0226,-0.0244,-0.0273,-0.0242,-0.0244,-0.0245,-0.0254,-0.0255,-0.0247,-0.0247,-0.0247,0,-0.068,-0.0693,-0.0688,-0.0683,-0.0675,-0.0653,-0.0646,-0.0621,-0.0565,-0.0551,-0.0537,-0.0424,-0.0364,-0.0311,-0.0314,-0.0276,-0.0263,-0.0264,-0.0251,-0.0251,-0.0251,-0.0259,-0.026,-0.0251,-0.0251,-0.025,-0.025,0,-0.0674,-0.0681,-0.0675,-0.0679,-0.0665,-0.0652,-0.0633,-0.0613,-0.0595,-0.0574,-0.0521,-0.0453,-0.0391,-0.0371,-0.0333,-0.0303,-0.0299,-0.0265,-0.0245,-0.0259,-0.0266,-0.0265,-0.0257,-0.0255,-0.0254,-0.0253,0,0,-0.0676,-0.0676,-0.0676,-0.0684,-0.0668,-0.0659,-0.064,-0.0623,-0.0616,-0.0569,-0.0554,-0.0474,-0.0452,-0.0409,-0.0365,-0.0338,-0.0343,-0.0306,-0.0302,-0.0331,-0.0303,-0.0367,-0.0372,-0.0306,-0.0306,-0.0305,-0.0324,0,-0.0676,-0.0684,-0.0678,-0.0679,-0.0683,-0.0667,-0.0653,-0.0634,-0.0612,-0.0589,-0.0541,-0.0499,-0.0463,-0.0438,-0.0409,-0.0349,-0.0336,-0.0342,-0.0271,-0.0269,-0.0336,-0.037,-0.0339,-0.0358,-0.0323,-0.0322,-0.0322,0,-0.0678,-0.0688,-0.0696,-0.0702,-0.07,-0.0695,-0.0689,-0.0672,-0.0639,-0.0619,-0.0584,-0.0542,-0.0501,-0.0465,-0.0396,-0.0402,-0.0359,-0.0321,-0.032,-0.0343,-0.0329,-0.0328,-0.0357,-0.0175,-0.032,-0.032,-0.032,0,-0.0699,-0.0702,-0.0718,-0.0718,-0.0714,-0.0714,-0.071,-0.0684,-0.0675,-0.0641,-0.0634,-0.0577,-0.0551,-0.0486,-0.043,-0.0402,-0.037,-0.0317,-0.0341,-0.0346,-0.0286,-0.0287,-0.0138,-0.0267,-0.0267,-0.0267,-0.0267,0,-0.071,-0.0719,-0.0732,-0.074,-0.0758,-0.0742,-0.0748,-0.0732,-0.0708,-0.0706,-0.0654,-0.0648,-0.055,-0.0524,-0.0457,-0.0427,-0.0395,-0.0359,-0.0352,-0.032,-0.0324,-0.0135,-0.0031,-0.0268,-0.0268,-0.0267,-0.0267,0,-0.0719,-0.0729,-0.075,-0.0762,-0.0769,-0.0781,-0.0782,-0.0782,-0.0757,-0.0755,-0.0747,-0.0702,-0.068,-0.0617,-0.0529,-0.0478,-0.0354,-0.0421,-0.0423,-0.0416,-0.0264,-0.0168,-0.0113,-0.0042,-0.0438,-0.044,-0.0442,0,-0.0719,-0.0734,-0.0772,-0.0794,-0.08,-0.0817,-0.0826,-0.0809,-0.0811,-0.0796,-0.0801,-0.0785,-0.0788,-0.0727,-0.0643,-0.0581,-0.0418,-0.0489,-0.042,-0.0267,-0.0152,-0.0145,-0.0086,-0.038,-0.0381,-0.0381,-0.0382,0,-0.0717,-0.0738,-0.076,-0.0812,-0.0839,-0.0862,-0.0876,-0.0887,-0.0869,-0.0878,-0.0889,-0.0895,-0.0862,-0.0821,-0.0758,-0.0658,-0.0369,-0.0503,-0.0307,-0.0075,-0.0089,-0.0013,-0.0383,-0.0387,-0.0387,-0.0386,-0.0386,-0.0386,-0.071,-0.0736,-0.0777,-0.082,-0.0858,-0.0893,-0.0909,-0.0933,-0.0952,-0.0966,-0.0976,-0.0999,-0.0945,-0.0868,-0.0717,-0.0412,-0.0436,-0.0273,-0.0169,-0.018,-0.0101,-0.0529,-0.055,-0.055,-0.055,-0.0551,-0.0551,0,-0.0698,-0.0735,-0.078,-0.0834,-0.0871,-0.0892,-0.0928,-0.0942,-0.098,-0.1023,-0.1056,-0.1042,-0.093,-0.0729,-0.0428,-0.0137,-0.001,0.0068,0.0173,0.0221,-0.0105,-0.0087,-0.0054,-0.0054,-0.0054,-0.0054,-0.0055,-0.0055,-0.0693,-0.0735,-0.0766,-0.0825,-0.0863,-0.0904,-0.0924,-0.0964,-0.0995,-0.1026,-0.103,-0.0999,-0.0666,-0.0346,0.0146,0.029,0.0532,0.0528,0.0631,0.053,0.0509,0.049,0.0533,0.0696,0.0697,0.0926,0.093,0.0932]}],[{"header":{"parameterUnit":"m.s-1","parameterCategory":2,"la1":30.2991,"la2":30.254,"lo1":-89.0895,"lo2":-89.0444,"dy":0.0017,"dx":0.0017,"nx":28,"ny":28,"refTime":"2025-06-02T21:00:00:Z","depth":"2","parameterNumber":2,"parameterNumberName":"U-component_of_CURRENTS"},"data":[0,0,0,0,0,0,0,0,0,0,0,0,0,0,0,0,0,0,0,0,0,0,0,0,0,0,0,0,0,0,0,0,0,0,0,0,0,0,0,0,0,0,0,0,0,0,0,0,0,0,0,0,0,0,0,0,0,0,-0.1494,-0.1494,0,-0.1418,-0.1417,-0.1416,-0.1409,-0.141,-0.1411,-0.1412,-0.1296,-0.1292,-0.1288,0,0,0,0,0,0,0,0,0,0,0,0,0,-0.1619,-0.1616,-0.1494,-0.1493,-0.1493,-0.1418,-0.1417,-0.1416,-0.1409,-0.141,-0.1411,-0.1413,-0.1297,-0.1292,-0.1288,0,0,0,0,0,0,0,0,0,0,0,0,0,-0.1553,-0.1615,-0.1494,-0.1482,-0.1481,-0.1418,-0.1417,-0.1415,-0.1409,-0.141,-0.1412,-0.1413,-0.1299,-0.1293,-0.1287,-0.1218,0,0,-0.1268,-0.1266,0,0,0,0,0,0,0,0,-0.1557,-0.1548,-0.1485,-0.1483,-0.1481,-0.1427,-0.1418,-0.1348,-0.1408,-0.1433,-0.1412,-0.1414,-0.1336,-0.1327,-0.1307,-0.1212,-0.1207,-0.1268,-0.1264,-0.1261,-0.126,0,0,0,0,0,0,0,-0.1562,-0.1552,-0.1461,-0.1484,-0.1482,-0.1476,-0.1468,-0.1405,-0.1374,-0.1431,-0.1431,-0.1426,-0.1335,-0.1312,-0.1304,-0.1206,-0.1268,-0.1262,-0.1259,-0.1256,-0.1123,-0.1123,0,0,0,0,0,0,-0.1574,-0.1555,-0.1464,-0.1459,-0.1527,-0.1472,-0.1464,-0.1441,-0.1376,-0.1369,-0.1425,-0.1426,-0.1322,-0.1311,-0.13,-0.1296,-0.1261,-0.1256,-0.1252,-0.1123,-0.1123,-0.1123,0,0,0,0,0,0,-0.1577,-0.1566,-0.1467,-0.1509,-0.1497,-0.1469,-0.1443,-0.1438,-0.1426,-0.1372,-0.1364,-0.142,-0.1323,-0.1308,-0.1265,-0.1289,-0.1253,-0.1247,-0.1123,-0.1123,-0.1123,-0.1237,0,0,0,0,0,0,-0.1581,-0.1567,-0.1551,-0.1509,-0.1495,-0.1447,-0.1442,-0.1436,-0.1422,-0.1423,-0.1364,-0.1355,-0.1323,-0.1274,-0.1259,-0.128,-0.1243,-0.1122,-0.1123,-0.1123,-0.1233,-0.1241,-0.1248,0,0,0,0,0,-0.1585,-0.1556,-0.155,-0.1539,-0.1474,-0.1447,-0.1439,-0.1424,-0.142,-0.1417,-0.1384,-0.1357,-0.1265,-0.1269,-0.1251,-0.1271,-0.1122,-0.1123,-0.1123,-0.123,-0.1239,-0.1247,0,0,0,0,0,0,-0.1593,-0.1551,-0.1545,-0.1502,-0.1487,-0.1448,-0.1432,-0.1424,-0.1392,-0.139,-0.1345,-0.1333,-0.1305,-0.1261,-0.1267,-0.1232,-0.1193,-0.119,-0.1281,-0.1289,-0.1296,-0.1291,-0.1238,0,0,0,0,0,-0.1588,-0.1559,-0.1531,-0.1497,-0.1489,-0.1461,-0.1446,-0.144,-0.1408,-0.1396,-0.1361,-0.132,-0.1286,-0.1269,-0.1222,-0.1191,-0.117,-0.1194,-0.1202,-0.1209,-0.1191,-0.12,-0.1208,-0.1124,-0.1124,-0.1124,0,0,-0.1581,-0.1554,-0.1537,-0.1498,-0.1477,-0.1465,-0.1455,-0.1435,-0.1433,-0.1384,-0.1362,-0.1333,-0.1279,-0.1261,-0.1245,-0.1233,-0.1225,-0.1209,-0.1216,-0.1193,-0.1202,-0.121,-0.1218,-0.1124,-0.1124,-0.1124,0,0,-0.1555,-0.1529,-0.1502,-0.1494,-0.1473,-0.1463,-0.1463,-0.1436,-0.1435,-0.1409,-0.1386,-0.1373,-0.1305,-0.1294,-0.1273,-0.1282,-0.1257,-0.1273,-0.1315,-0.1327,-0.1334,-0.134,-0.1349,-0.1355,-0.1288,-0.1288,-0.1288,0,-0.1553,-0.1511,-0.1493,-0.1476,-0.1472,-0.1467,-0.1457,-0.1449,-0.1418,-0.1417,-0.1416,-0.1358,-0.1321,-0.1314,-0.1328,-0.1301,-0.1301,-0.1296,-0.134,-0.1345,-0.135,-0.1356,-0.1362,-0.1293,-0.1293,-0.1292,-0.1292,0,-0.1513,-0.1491,-0.1476,-0.1456,-0.1453,-0.1443,-0.1445,-0.1446,-0.1447,-0.1443,-0.1439,-0.1409,-0.1378,-0.1383,-0.1355,-0.1376,-0.1365,-0.1348,-0.1328,-0.1366,-0.137,-0.1373,-0.1301,-0.1299,-0.1298,-0.1296,0,0,-0.1483,-0.1455,-0.1452,-0.145,-0.1448,-0.144,-0.1449,-0.1453,-0.1456,-0.1462,-0.1466,-0.1449,-0.1448,-0.1423,-0.1412,-0.1432,-0.1479,-0.1412,-0.141,-0.1437,-0.1511,-0.1348,-0.1336,-0.1486,-0.1487,-0.1487,-0.1511,0,-0.1463,-0.1433,-0.1428,-0.142,-0.1412,-0.1429,-0.1436,-0.1447,-0.1454,-0.1457,-0.1472,-0.1459,-0.1462,-0.1458,-0.1483,-0.146,-0.1489,-0.1473,-0.1452,-0.145,-0.1315,-0.1333,-0.1203,-0.1199,-0.1514,-0.1515,-0.1515,0,-0.1428,-0.1417,-0.14,-0.1409,-0.1407,-0.1411,-0.1431,-0.1438,-0.1455,-0.1461,-0.1481,-0.1474,-0.1497,-0.1492,-0.1518,-0.1513,-0.1515,-0.1515,-0.1516,-0.1315,-0.1291,-0.1203,-0.1192,-0.152,-0.152,-0.1519,-0.1519,0,-0.1413,-0.1402,-0.1391,-0.1393,-0.1399,-0.1407,-0.1421,-0.1438,-0.1433,-0.1465,-0.1448,-0.1495,-0.148,-0.1522,-0.1503,-0.1524,-0.1516,-0.1544,-0.141,-0.14,-0.1251,-0.1224,-0.1566,-0.1566,-0.1566,-0.1566,-0.1566,0,-0.1392,-0.1382,-0.1385,-0.1378,-0.1375,-0.1399,-0.1396,-0.1416,-0.1425,-0.14,-0.1446,-0.1407,-0.1483,-0.1474,-0.1506,-0.1439,-0.1521,-0.14,-0.1385,-0.1285,-0.1262,-0.1499,-0.1491,-0.1567,-0.1567,-0.1566,-0.1566,0,-0.136,-0.1362,-0.1345,-0.1355,-0.1359,-0.1359,-0.1361,-0.1353,-0.1375,-0.134,-0.1343,-0.1339,-0.131,-0.1361,-0.1392,-0.1385,-0.1379,-0.1339,-0.1205,-0.117,-0.1272,-0.127,-0.1221,-0.1215,-0.121,-0.1206,-0.1202,0,-0.1337,-0.1323,-0.1315,-0.1304,-0.1304,-0.1307,-0.1298,-0.1325,-0.1306,-0.1267,-0.1233,-0.1192,-0.1129,-0.1103,-0.1118,-0.1142,-0.1212,-0.099,-0.0986,-0.1241,-0.1233,-0.1238,-0.1242,-0.087,-0.0864,-0.0859,-0.0855,0,-0.1286,-0.1279,-0.1264,-0.1241,-0.1229,-0.1213,-0.1207,-0.1185,-0.1193,-0.1155,-0.1075,-0.1022,-0.0948,-0.0867,-0.0847,-0.084,-0.0981,-0.0885,-0.1196,-0.0943,-0.0902,-0.0896,-0.0914,-0.0812,-0.0817,-0.082,-0.0822,-0.0824,-0.1235,-0.1208,-0.1184,-0.116,-0.1149,-0.1121,-0.1097,-0.1085,-0.1042,-0.0987,-0.0942,-0.0839,-0.076,-0.0672,-0.0623,-0.0595,-0.0686,-0.0642,-0.0662,-0.0686,-0.0606,-0.0554,-0.0387,-0.0389,-0.039,-0.0392,-0.0393,0,-0.1145,-0.1124,-0.1104,-0.1067,-0.104,-0.1059,-0.1028,-0.0997,-0.0938,-0.0891,-0.0823,-0.0635,-0.0507,-0.046,-0.037,-0.0325,-0.0395,-0.0261,-0.0362,-0.0399,-0.0434,-0.0349,-0.0059,-0.0059,-0.0058,-0.0058,0,0,-0.1087,-0.1029,-0.102,-0.096,-0.0953,-0.0904,-0.0884,-0.0848,-0.0816,-0.0722,-0.0651,-0.0615,-0.05,-0.0359,-0.0247,-0.0159,-0.0311,-0.0129,-0.0382,-0.0544,-0.0581,-0.061,-0.0511,0,0,0,0,0]},{"header":{"parameterUnit":"m.s-1","parameterCategory":2,"la1":30.2991,"la2":30.254,"lo1":-89.0895,"lo2":-89.0444,"dy":0.0017,"dx":0.0017,"nx":28,"ny":28,"refTime":"2025-06-02T21:00:00:Z","depth":"2","parameterNumber":3,"parameterNumberName":"V-component_of_CURRENTS"},"data":[0,0,0,0,0,0,0,0,0,0,0,0,0,0,0,0,0,0,0,0,0,0,0,0,0,0,0,0,0,0,0,0,0,0,0,0,0,0,0,0,0,0,0,0,0,0,0,0,0,0,0,0,0,0,0,0,0,0,-0.005,-0.0049,0,0.0049,0.005,0.0052,0.0056,0.0054,0.0053,0.0052,0.0158,0.0162,0.0166,0,0,0,0,0,0,0,0,0,0,0,0,0,-0.0127,-0.0126,-0.005,-0.0049,-0.0048,0.0049,0.005,0.0052,0.0056,0.0054,0.0053,0.0051,0.0157,0.0161,0.0166,0,0,0,0,0,0,0,0,0,0,0,0,0,-0.0066,-0.0126,-0.005,-0.0036,-0.0033,0.0049,0.005,0.0052,0.0056,0.0054,0.0052,0.005,0.0155,0.0161,0.0167,0.0245,0,0,0.0186,0.0188,0,0,0,0,0,0,0,0,-0.007,-0.0063,-0.0039,-0.0037,-0.0034,0.0037,0.0062,0.0116,0.0057,0.0024,0.0052,0.0049,0.0118,0.0127,0.0153,0.025,0.0254,0.0186,0.019,0.0192,0.0194,0,0,0,0,0,0,0,-0.0074,-0.0067,-0.0009,-0.0038,-0.0035,0.0004,0.0009,0.0073,0.0083,0.0027,0.0027,0.0036,0.012,0.0147,0.0155,0.0256,0.0186,0.0191,0.0195,0.0198,0.0434,0.0436,0,0,0,0,0,0,-0.0093,-0.0071,-0.0012,-0.0006,-0.0059,0.0006,0.0012,0.0017,0.0082,0.0089,0.0038,0.0036,0.0137,0.0148,0.0159,0.0242,0.0192,0.0198,0.0202,0.0431,0.0434,0.0437,0,0,0,0,0,0,-0.0095,-0.0089,-0.0017,-0.0038,-0.0026,0.0008,0.0015,0.002,0.0022,0.009,0.0097,0.0029,0.0136,0.015,0.0211,0.0246,0.0201,0.0206,0.0428,0.0432,0.0436,0.0416,0,0,0,0,0,0,-0.0098,-0.009,-0.0099,-0.0039,-0.0026,0.0015,0.0017,0.0024,0.0031,0.0029,0.0086,0.0095,0.0136,0.0202,0.0217,0.0254,0.0211,0.0425,0.043,0.0434,0.0413,0.0419,0.0423,0,0,0,0,0,-0.0101,-0.0104,-0.0101,-0.0094,-0.0038,0.0015,0.0025,0.0045,0.0032,0.0037,0.0083,0.0092,0.0244,0.0209,0.0226,0.0265,0.0422,0.0428,0.0434,0.0411,0.0418,0.0423,0,0,0,0,0,0,-0.0138,-0.0102,-0.0097,-0.009,-0.005,0.0014,0.0019,0.0034,0.0075,0.0066,0.012,0.0134,0.0203,0.0244,0.0203,0.0353,0.0338,0.0348,0.0315,0.0322,0.0327,0.0282,0.0216,0,0,0,0,0,-0.0151,-0.015,-0.01,-0.0094,-0.0081,-0.0036,-0.0017,-0.0,0.0048,0.0061,0.0106,0.0171,0.0251,0.0286,0.0352,0.0431,0.0446,0.0473,0.0478,0.0481,0.0461,0.0536,0.0545,0.0456,0.0456,0.0456,0,0,-0.0162,-0.0144,-0.0142,-0.0103,-0.0075,-0.0039,-0.003,-0.0007,0.003,0.0071,0.0122,0.0181,0.0274,0.0362,0.0398,0.0393,0.0515,0.0489,0.0491,0.0468,0.0543,0.0551,0.0558,0.046,0.046,0.0459,0,0,-0.0175,-0.017,-0.0171,-0.0137,-0.0101,-0.0061,-0.0062,-0.0006,0.0016,0.0082,0.0132,0.0207,0.0309,0.0395,0.0452,0.053,0.0533,0.0553,0.0547,0.0621,0.0627,0.0633,0.0646,0.0653,0.0561,0.0561,0.0561,0,-0.0193,-0.0181,-0.0159,-0.014,-0.0113,-0.0076,-0.0052,-0.0005,0.0066,0.0095,0.0089,0.0261,0.0335,0.0465,0.0494,0.054,0.0548,0.0509,0.0622,0.0629,0.0635,0.0647,0.0655,0.0561,0.0561,0.0561,0.0561,0,-0.0191,-0.0182,-0.0177,-0.0139,-0.0106,-0.008,-0.0014,0.0018,0.0045,0.0097,0.0193,0.0296,0.039,0.0449,0.0494,0.0596,0.0574,0.0609,0.0591,0.0641,0.0652,0.0661,0.0561,0.0561,0.0561,0.0561,0,0,-0.0225,-0.0186,-0.0185,-0.0171,-0.0106,-0.0076,-0.0016,0.0056,0.0082,0.016,0.0206,0.0369,0.039,0.0456,0.0533,0.0605,0.0668,0.0612,0.0616,0.0594,0.0772,0.067,0.067,0.0709,0.0711,0.0712,0.0753,0,-0.023,-0.021,-0.0178,-0.014,-0.0119,-0.0062,-0.001,0.0058,0.0111,0.0164,0.0276,0.0349,0.0408,0.0441,0.0527,0.0628,0.0691,0.0649,0.0751,0.0753,0.0634,0.0678,0.069,0.0719,0.0761,0.0763,0.0764,0,-0.0232,-0.0218,-0.0199,-0.0148,-0.0136,-0.0108,-0.004,0.0015,0.0109,0.0143,0.0225,0.0288,0.0412,0.0443,0.0622,0.058,0.0665,0.074,0.0745,0.0656,0.0669,0.0685,0.0734,0.0778,0.0777,0.0776,0.0775,0,-0.0266,-0.0227,-0.022,-0.02,-0.0137,-0.0124,-0.0087,-0.0003,0.0036,0.0115,0.0128,0.027,0.0322,0.046,0.0592,0.0609,0.0748,0.0809,0.0799,0.0791,0.0824,0.0814,0.0934,0.0934,0.0934,0.0933,0.0933,0,-0.0273,-0.0263,-0.0248,-0.0241,-0.0228,-0.0173,-0.0149,-0.0097,-0.0035,0.0,0.0098,0.0132,0.0326,0.0422,0.056,0.0668,0.073,0.0782,0.0802,0.0815,0.0805,0.0879,0.0872,0.0935,0.0935,0.0934,0.0934,0,-0.0297,-0.0288,-0.0279,-0.0252,-0.0247,-0.0241,-0.0199,-0.0175,-0.0128,-0.0089,-0.0074,0.0034,0.0132,0.0296,0.0502,0.0604,0.074,0.077,0.0723,0.0736,0.0743,0.0735,0.0776,0.0773,0.0771,0.0769,0.0767,0,-0.03,-0.0306,-0.0306,-0.031,-0.0304,-0.0293,-0.0279,-0.0225,-0.0203,-0.015,-0.0138,-0.0066,-0.0015,0.0189,0.0362,0.0537,0.0638,0.0681,0.074,0.0714,0.0731,0.0727,0.0723,0.0785,0.0784,0.0783,0.0782,0,-0.0302,-0.032,-0.0318,-0.0339,-0.0345,-0.0336,-0.0324,-0.0327,-0.0271,-0.0265,-0.0251,-0.0225,-0.0089,0.0099,0.0289,0.0408,0.0648,0.0655,0.0693,0.0789,0.0718,0.0734,0.0733,0.0771,0.0772,0.0772,0.0773,0.0773,-0.0307,-0.0316,-0.0334,-0.035,-0.0363,-0.038,-0.0393,-0.0383,-0.0386,-0.0352,-0.0329,-0.0203,-0.005,0.0234,0.0308,0.0436,0.0476,0.0642,0.065,0.0659,0.0619,0.0543,0.0554,0.0553,0.0553,0.0553,0.0553,0,-0.0296,-0.0311,-0.0332,-0.0361,-0.0398,-0.0396,-0.0413,-0.0429,-0.0462,-0.0353,-0.0336,-0.0101,0.0092,0.0274,0.044,0.0486,0.0504,0.0532,0.0622,0.0633,0.0643,0.0605,0.0535,0.0535,0.0534,0.0534,0,0,-0.0288,-0.0305,-0.0322,-0.0383,-0.0418,-0.0474,-0.0501,-0.0519,-0.045,-0.0376,-0.018,-0.0004,0.0224,0.037,0.0407,0.05,0.0527,0.0472,0.049,0.0596,0.0604,0.0718,0.0672,0,0,0,0,0]}],[{"header":{"parameterUnit":"m.s-1","parameterCategory":2,"la1":30.2991,"la2":30.254,"lo1":-89.0895,"lo2":-89.0444,"dy":0.0017,"dx":0.0017,"nx":28,"ny":28,"refTime":"2025-06-02T21:00:00:Z","depth":"4","parameterNumber":2,"parameterNumberName":"U-component_of_CURRENTS"},"data":[0,0,0,0,0,0,0,0,0,0,0,0,0,0,0,0,0,0,0,0,0,0,0,0,0,0,0,0,0,0,0,0,0,0,0,0,0,0,0,0,0,0,0,0,0,0,0,0,0,0,0,0,0,0,0,0,0,0,-0.0592,-0.0592,0,-0.0648,-0.0649,-0.0649,-0.0693,-0.0693,-0.0694,-0.0694,-0.0754,-0.0756,-0.0757,0,0,0,0,0,0,0,0,0,0,0,0,0,-0.0567,-0.0567,-0.0592,-0.0592,-0.0593,-0.0648,-0.0649,-0.065,-0.0693,-0.0693,-0.0694,-0.0694,-0.0754,-0.0756,-0.0757,0,0,0,0,0,0,0,0,0,0,0,0,0,-0.0596,-0.0567,-0.0592,-0.0621,-0.0624,-0.0648,-0.0649,-0.065,-0.0693,-0.0693,-0.0694,-0.0695,-0.0754,-0.0755,-0.0757,-0.0758,0,0,-0.0763,-0.0764,0,0,0,0,0,0,0,0,-0.0594,-0.0597,-0.0616,-0.0619,-0.0623,-0.0664,-0.0662,-0.0686,-0.0693,-0.0667,-0.0694,-0.0695,-0.0724,-0.0728,-0.0738,-0.0761,-0.0763,-0.0763,-0.0764,-0.0765,-0.0766,0,0,0,0,0,0,0,-0.0592,-0.0595,-0.0615,-0.0617,-0.0621,-0.0647,-0.0651,-0.0667,-0.0692,-0.067,-0.0673,-0.0678,-0.0726,-0.0736,-0.074,-0.0764,-0.0763,-0.0765,-0.0766,-0.0767,-0.0824,-0.0824,0,0,0,0,0,0,-0.0581,-0.0593,-0.0613,-0.0616,-0.0609,-0.0646,-0.0651,-0.065,-0.0692,-0.0699,-0.0677,-0.068,-0.0733,-0.0738,-0.0742,-0.0793,-0.0765,-0.0767,-0.0768,-0.0823,-0.0824,-0.0824,0,0,0,0,0,0,-0.058,-0.0582,-0.0611,-0.0606,-0.0611,-0.0646,-0.0645,-0.0651,-0.0678,-0.0698,-0.0705,-0.0699,-0.0733,-0.0739,-0.0758,-0.0794,-0.0768,-0.0769,-0.0823,-0.0823,-0.0824,-0.0865,0,0,0,0,0,0,-0.0579,-0.0581,-0.0589,-0.0605,-0.0611,-0.0629,-0.0644,-0.0652,-0.0679,-0.0683,-0.0718,-0.0723,-0.0734,-0.0755,-0.076,-0.0796,-0.0771,-0.0822,-0.0823,-0.0824,-0.0863,-0.0866,-0.087,0,0,0,0,0,-0.0578,-0.0589,-0.0589,-0.0592,-0.0616,-0.063,-0.0636,-0.0663,-0.0679,-0.0689,-0.0708,-0.0723,-0.0764,-0.0756,-0.0762,-0.08,-0.0822,-0.0823,-0.0824,-0.0861,-0.0866,-0.087,0,0,0,0,0,0,-0.0589,-0.0595,-0.0595,-0.0609,-0.0617,-0.0637,-0.0659,-0.067,-0.0694,-0.0708,-0.0722,-0.0728,-0.0762,-0.0765,-0.0757,-0.0816,-0.0798,-0.08,-0.0825,-0.0829,-0.0832,-0.0826,-0.0773,0,0,0,0,0,-0.059,-0.0597,-0.0602,-0.0613,-0.0622,-0.0641,-0.0655,-0.067,-0.0688,-0.0701,-0.0717,-0.074,-0.0767,-0.0784,-0.08,-0.0828,-0.0819,-0.0856,-0.0859,-0.0862,-0.0859,-0.087,-0.0874,-0.0827,-0.0827,-0.0827,0,0,-0.0596,-0.0602,-0.0606,-0.0616,-0.0632,-0.0645,-0.0652,-0.0679,-0.0696,-0.0703,-0.0734,-0.0751,-0.0774,-0.0808,-0.0825,-0.0819,-0.0869,-0.0863,-0.0866,-0.0861,-0.0871,-0.0876,-0.088,-0.0827,-0.0827,-0.0827,0,0,-0.0606,-0.0618,-0.0624,-0.0635,-0.0656,-0.0665,-0.0673,-0.0692,-0.0712,-0.0736,-0.075,-0.0779,-0.0813,-0.0836,-0.0854,-0.0883,-0.0884,-0.0896,-0.0918,-0.0929,-0.0933,-0.0936,-0.0924,-0.0926,-0.0902,-0.0903,-0.0903,0,-0.0616,-0.0619,-0.0629,-0.0641,-0.0654,-0.0673,-0.0684,-0.0709,-0.0729,-0.075,-0.0752,-0.0813,-0.083,-0.0881,-0.0891,-0.0895,-0.0888,-0.0905,-0.0934,-0.0937,-0.094,-0.0927,-0.0928,-0.0905,-0.0904,-0.0904,-0.0904,0,-0.0623,-0.0635,-0.0647,-0.0661,-0.0674,-0.0693,-0.0715,-0.0739,-0.0765,-0.0788,-0.0839,-0.0857,-0.0892,-0.0911,-0.0913,-0.0952,-0.0935,-0.0935,-0.0926,-0.0948,-0.0931,-0.0933,-0.0908,-0.0907,-0.0906,-0.0906,0,0,-0.0623,-0.0644,-0.0651,-0.0656,-0.0688,-0.0696,-0.0736,-0.077,-0.0805,-0.084,-0.0878,-0.093,-0.0942,-0.0961,-0.0972,-0.0984,-0.0998,-0.0969,-0.0968,-0.0959,-0.1004,-0.0919,-0.0912,-0.1006,-0.1006,-0.1007,-0.0982,0,-0.0627,-0.0641,-0.0654,-0.0675,-0.0683,-0.0717,-0.0748,-0.0788,-0.0829,-0.087,-0.0917,-0.0955,-0.0963,-0.098,-0.0999,-0.0999,-0.1003,-0.1003,-0.0981,-0.098,-0.0905,-0.0912,-0.1009,-0.0983,-0.0983,-0.0984,-0.0984,0,-0.0628,-0.0637,-0.065,-0.0675,-0.0685,-0.0703,-0.0757,-0.0785,-0.0859,-0.0896,-0.0952,-0.0979,-0.1017,-0.1008,-0.1032,-0.1031,-0.1016,-0.1011,-0.1011,-0.0916,-0.0897,-0.0957,-0.0986,-0.0985,-0.0985,-0.0985,-0.0985,0,-0.0611,-0.0635,-0.0641,-0.0653,-0.0687,-0.0708,-0.073,-0.0797,-0.0832,-0.0903,-0.0934,-0.0995,-0.1009,-0.1024,-0.1023,-0.1027,-0.1028,-0.1032,-0.0941,-0.0934,-0.1002,-0.0998,-0.1032,-0.1033,-0.1033,-0.1033,-0.1033,0,-0.0607,-0.0617,-0.0635,-0.0644,-0.0657,-0.0689,-0.0729,-0.0768,-0.0836,-0.0872,-0.0935,-0.0957,-0.101,-0.1022,-0.1025,-0.0981,-0.1031,-0.0936,-0.0923,-0.1018,-0.1016,-0.1002,-0.0999,-0.1032,-0.1032,-0.1032,-0.1032,0,-0.059,-0.0605,-0.0611,-0.0641,-0.0647,-0.0655,-0.0707,-0.0747,-0.0806,-0.0849,-0.0867,-0.0928,-0.0918,-0.0955,-0.0963,-0.0958,-0.0942,-0.091,-0.0994,-0.0988,-0.084,-0.0839,-0.0805,-0.0802,-0.0799,-0.0797,-0.0795,0,-0.0579,-0.0581,-0.0596,-0.0597,-0.061,-0.0632,-0.0659,-0.0723,-0.0758,-0.0818,-0.0827,-0.0836,-0.0862,-0.0805,-0.0852,-0.0844,-0.0835,-0.0842,-0.0852,-0.0826,-0.0817,-0.0821,-0.0824,-0.0791,-0.079,-0.079,-0.0789,0,-0.0558,-0.0569,-0.0572,-0.0573,-0.0587,-0.0601,-0.0632,-0.0649,-0.0719,-0.0775,-0.0754,-0.0751,-0.0725,-0.0728,-0.072,-0.0725,-0.0857,-0.0814,-0.082,-0.0829,-0.0808,-0.0803,-0.0809,-0.078,-0.0781,-0.0782,-0.0782,0,-0.0541,-0.0536,-0.0546,-0.054,-0.0554,-0.0559,-0.0581,-0.0597,-0.0625,-0.0684,-0.0665,-0.0671,-0.0695,-0.0662,-0.0667,-0.0653,-0.0644,-0.066,-0.0673,-0.0684,-0.066,-0.0617,-0.0511,0,0,0,0,0,-0.052,-0.0516,-0.0515,-0.0505,-0.0521,-0.0528,-0.0563,-0.0595,-0.0647,-0.0605,-0.0633,-0.0598,-0.0575,-0.0585,-0.0541,-0.0624,-0.0662,-0.0578,-0.0692,-0.0728,-0.0738,-0.0723,0,0,0,0,0,0,-0.0503,-0.0508,-0.0505,-0.0482,-0.0472,-0.0487,-0.0505,-0.0539,-0.0514,-0.0557,-0.0528,-0.057,-0.0538,-0.0569,-0.0525,-0.0532,-0.0597,-0.0587,-0.0586,-0.0721,-0.0731,-0.074,-0.0728,0,0,0,0,0]},{"header":{"parameterUnit":"m.s-1","parameterCategory":2,"la1":30.2991,"la2":30.254,"lo1":-89.0895,"lo2":-89.0444,"dy":0.0017,"dx":0.0017,"nx":28,"ny":28,"refTime":"2025-06-02T21:00:00:Z","depth":"4","parameterNumber":3,"parameterNumberName":"V-component_of_CURRENTS"},"data":[0,0,0,0,0,0,0,0,0,0,0,0,0,0,0,0,0,0,0,0,0,0,0,0,0,0,0,0,0,0,0,0,0,0,0,0,0,0,0,0,0,0,0,0,0,0,0,0,0,0,0,0,0,0,0,0,0,0,-0.0278,-0.0278,0,-0.0244,-0.0244,-0.0243,-0.0209,-0.0208,-0.0208,-0.0208,-0.0178,-0.0178,-0.0177,0,0,0,0,0,0,0,0,0,0,0,0,0,-0.0299,-0.0299,-0.0278,-0.0278,-0.0277,-0.0245,-0.0244,-0.0243,-0.0209,-0.0208,-0.0208,-0.0208,-0.0178,-0.0178,-0.0177,0,0,0,0,0,0,0,0,0,0,0,0,0,-0.0279,-0.0298,-0.0278,-0.0257,-0.0255,-0.0245,-0.0244,-0.0243,-0.0209,-0.0208,-0.0208,-0.0207,-0.0178,-0.0178,-0.0177,-0.0183,0,0,-0.0175,-0.0174,0,0,0,0,0,0,0,0,-0.028,-0.0278,-0.0261,-0.0259,-0.0257,-0.0232,-0.024,-0.0224,-0.0209,-0.0225,-0.0208,-0.0207,-0.0198,-0.0195,-0.0188,-0.0181,-0.018,-0.0175,-0.0174,-0.0174,-0.0174,0,0,0,0,0,0,0,-0.0281,-0.0279,-0.0263,-0.0261,-0.0258,-0.0245,-0.0242,-0.0237,-0.0214,-0.0224,-0.0221,-0.022,-0.0196,-0.0189,-0.0187,-0.018,-0.0175,-0.0174,-0.0174,-0.0173,-0.0186,-0.0187,0,0,0,0,0,0,-0.029,-0.028,-0.0264,-0.0262,-0.0269,-0.0245,-0.0241,-0.0239,-0.0213,-0.0209,-0.0221,-0.0219,-0.019,-0.0188,-0.0186,-0.0192,-0.0174,-0.0173,-0.0173,-0.0186,-0.0187,-0.0187,0,0,0,0,0,0,-0.029,-0.0289,-0.0266,-0.0272,-0.0268,-0.0246,-0.0243,-0.0239,-0.0233,-0.0211,-0.0207,-0.0221,-0.019,-0.0187,-0.0188,-0.0191,-0.0173,-0.0172,-0.0185,-0.0186,-0.0187,-0.0205,0,0,0,0,0,0,-0.0291,-0.0289,-0.0292,-0.0272,-0.0268,-0.0266,-0.0244,-0.0238,-0.0234,-0.0231,-0.021,-0.0206,-0.0189,-0.019,-0.0188,-0.019,-0.0172,-0.0184,-0.0185,-0.0187,-0.0203,-0.0206,-0.0209,0,0,0,0,0,-0.0292,-0.0296,-0.0292,-0.029,-0.0272,-0.0266,-0.0263,-0.0244,-0.0235,-0.0237,-0.0224,-0.0207,-0.0197,-0.019,-0.0187,-0.0189,-0.0183,-0.0185,-0.0186,-0.0202,-0.0206,-0.0209,0,0,0,0,0,0,-0.0306,-0.0293,-0.0288,-0.0288,-0.0282,-0.0261,-0.0261,-0.0251,-0.0242,-0.0239,-0.0217,-0.0213,-0.0215,-0.0206,-0.0198,-0.0199,-0.0188,-0.0189,-0.02,-0.0204,-0.0207,-0.0203,-0.0171,0,0,0,0,0,-0.0313,-0.0313,-0.03,-0.0303,-0.03,-0.0284,-0.0279,-0.0269,-0.0257,-0.0252,-0.0241,-0.023,-0.022,-0.0216,-0.0209,-0.0211,-0.0179,-0.0212,-0.0215,-0.0218,-0.0215,-0.0155,-0.0151,-0.0193,-0.0193,-0.0193,0,0,-0.0323,-0.0313,-0.0316,-0.0307,-0.0299,-0.0302,-0.0279,-0.0277,-0.028,-0.0252,-0.0256,-0.0242,-0.0225,-0.0224,-0.0224,-0.0216,-0.0194,-0.022,-0.0222,-0.0218,-0.0156,-0.0152,-0.0148,-0.0194,-0.0194,-0.0194,0,0,-0.0338,-0.0332,-0.0336,-0.0336,-0.0328,-0.0319,-0.0322,-0.0309,-0.0301,-0.0306,-0.0283,-0.027,-0.0268,-0.0245,-0.0235,-0.0253,-0.0213,-0.0258,-0.0265,-0.0207,-0.0202,-0.0198,-0.0167,-0.016,-0.0257,-0.0257,-0.0257,0,-0.0348,-0.0353,-0.0339,-0.0344,-0.0349,-0.033,-0.0342,-0.0333,-0.0324,-0.0318,-0.0314,-0.0288,-0.0273,-0.0253,-0.0258,-0.0257,-0.0226,-0.025,-0.0208,-0.0203,-0.0197,-0.0167,-0.0158,-0.0258,-0.0258,-0.0258,-0.0258,0,-0.0364,-0.0374,-0.0378,-0.0379,-0.0384,-0.0391,-0.0382,-0.0383,-0.0375,-0.036,-0.0346,-0.0319,-0.0298,-0.0294,-0.028,-0.0243,-0.0235,-0.0217,-0.0193,-0.0194,-0.0163,-0.0153,-0.026,-0.0259,-0.0259,-0.0259,0,0,-0.0372,-0.0385,-0.0388,-0.04,-0.0405,-0.0408,-0.0418,-0.0414,-0.0412,-0.0394,-0.0384,-0.0356,-0.0328,-0.0315,-0.0289,-0.0241,-0.0183,-0.0216,-0.0213,-0.0176,-0.0068,-0.0073,-0.0063,-0.0149,-0.0147,-0.0146,-0.0066,0,-0.0389,-0.0406,-0.0413,-0.0442,-0.0454,-0.0453,-0.0465,-0.0458,-0.0445,-0.0432,-0.0385,-0.0368,-0.0339,-0.0326,-0.027,-0.0213,-0.0157,-0.0208,-0.0082,-0.0079,-0.0073,-0.0051,-0.014,-0.0059,-0.0057,-0.0055,-0.0054,0,-0.0402,-0.0413,-0.0443,-0.0473,-0.0479,-0.0496,-0.0507,-0.0512,-0.0485,-0.0473,-0.0433,-0.0399,-0.0342,-0.0311,-0.0188,-0.022,-0.0142,-0.0089,-0.0084,-0.0072,-0.0065,-0.0055,-0.0036,-0.0038,-0.0039,-0.004,-0.0041,0,-0.0407,-0.0437,-0.0463,-0.0474,-0.0501,-0.0519,-0.053,-0.0522,-0.0519,-0.049,-0.0479,-0.0409,-0.0376,-0.0266,-0.0169,-0.0168,-0.0032,-0.0014,0.0059,0.0059,0.0047,0.0042,0.0101,0.0101,0.01,0.01,0.01,0,-0.0421,-0.0445,-0.0469,-0.0484,-0.0517,-0.0531,-0.0554,-0.0554,-0.0542,-0.0527,-0.0491,-0.0459,-0.0357,-0.0276,-0.0172,-0.004,-0.0026,0.0065,0.0089,0.0033,0.0025,0.0054,0.0047,0.0103,0.0103,0.0102,0.0101,0,-0.043,-0.0445,-0.0477,-0.051,-0.0523,-0.0544,-0.0572,-0.0577,-0.0569,-0.0548,-0.0539,-0.0488,-0.0393,-0.0294,-0.0137,-0.0051,0.0077,0.0128,0.0035,0.005,0.013,0.0121,0.0223,0.0224,0.0225,0.0225,0.0226,0,-0.044,-0.0455,-0.0493,-0.0512,-0.0533,-0.0563,-0.0582,-0.0587,-0.0582,-0.0552,-0.0533,-0.0468,-0.0418,-0.0213,-0.0114,0.0063,0.01,0.0164,0.0176,0.0135,0.0148,0.0138,0.0129,0.0227,0.0227,0.0227,0.0227,0,-0.0461,-0.0473,-0.0495,-0.0526,-0.0553,-0.0579,-0.0598,-0.0591,-0.0582,-0.0576,-0.0499,-0.0409,-0.0317,-0.0195,-0.0079,0.006,0.0117,0.0171,0.0172,0.0184,0.014,0.015,0.014,0.0229,0.0229,0.0229,0.0229,0,-0.0478,-0.0494,-0.0515,-0.0539,-0.0571,-0.0584,-0.0594,-0.0573,-0.0561,-0.0513,-0.0486,-0.0393,-0.0347,-0.0194,-0.0075,0.0033,0.0081,0.0146,0.0149,0.0147,0.0096,0.0027,0.0112,0,0,0,0,0,-0.0493,-0.0503,-0.0527,-0.0552,-0.0578,-0.0593,-0.06,-0.06,-0.0581,-0.0513,-0.0492,-0.0396,-0.0232,-0.018,-0.0067,-0.0072,0.008,0.0066,0.0152,0.0241,0.0239,0.019,0,0,0,0,0,0,-0.0503,-0.0527,-0.0526,-0.0551,-0.0568,-0.0594,-0.0597,-0.0584,-0.0538,-0.0505,-0.0425,-0.036,-0.022,-0.0305,-0.0067,-0.0039,0.0039,0.0137,0.014,0.0243,0.024,0.0238,0.0188,0,0,0,0,0]}]]